Quantico, VA

10:58 AM EST on December 16, 2017 (GMT -0500)
Quantico Marine Corps Air Facility

Weather History for KNYG - January, 2013

Change the Weather History Date:

Monday, January 7, 2013

  Actual Average Record
Temperature  
Mean Temperature 38 °F -  
Max Temperature 46 °F 43 °F 73 °F (2008)
Min Temperature 30 °F 27 °F 8 °F (2014)
Degree Days  
Heating Degree Days 27    
Moisture  
Dew Point 25 °F    
Average Humidity 55    
Maximum Humidity 79    
Minimum Humidity 39    
Precipitation  
Precipitation 0.00 in - - ()
Sea Level Pressure  
Sea Level Pressure 30.39 in    
Wind  
Wind Speed 8 mph (NNW)    
Max Wind Speed 15 mph    
Max Gust Speed 22 mph    
Visibility 10 miles    
Events      
Averages and records for this station are not official NWS values.
T = Trace of Precipitation, MM = Missing Value Source: NWS Daily Summary

Daily Weather History Graph

Daily Weather History Graph

Search for Another Location

Airport or City:

Trip Planner

Search our weather history database for the weather conditions in past years. The results will help you decide how hot, cold, wet, or windy it might be!

Date:

Astronomy

Jan. 07, 2013 Rise Set
Actual Time 7:26 AM EST 5:04 PM EST
Civil Twilight 6:57 AM EST 5:34 PM EST
Nautical Twilight 6:24 AM EST 6:07 PM EST
Astronomical Twilight 5:52 AM EST 6:39 PM EST
Moon 2:49 AM EST (1/7) 1:13 PM EST (1/7)
Length of Visible Light 10h 36m
Length of Day
9h 37m
Waning Crescent, 23% of the Moon is Illuminated
Jan 7
Waning Crescent
Jan 11
New
Jan 18
First Quarter
Jan 26
Full
Feb 3
Last Quarter

Hourly Weather History & Observations

Time (EST) Temp. Windchill Dew Point Humidity Pressure Visibility Wind Dir Wind Speed Gust Speed Precip Events Conditions
12:56 AM 39.9 °F 36.7 °F 30.0 °F 68% 30.18 in 10.0 mi North 4.6 mph - N/A   Overcast
1:56 AM 45.0 °F 40.1 °F 27.0 °F 49% 30.20 in 10.0 mi North 9.2 mph - N/A   Overcast
2:56 AM 45.0 °F 39.7 °F 27.0 °F 49% 30.22 in 10.0 mi North 10.4 mph - N/A   Overcast
3:56 AM 44.1 °F 40.8 °F 28.0 °F 53% 30.25 in 10.0 mi North 5.8 mph - N/A   Overcast
4:56 AM 44.1 °F 37.7 °F 26.1 °F 49% 30.27 in 10.0 mi NNW 12.7 mph 21.9 mph N/A   Overcast
5:56 AM 44.1 °F 39.0 °F 27.0 °F 51% 30.31 in 10.0 mi North 9.2 mph - N/A   Overcast
6:56 AM 43.0 °F 38.2 °F 26.1 °F 51% 30.34 in 10.0 mi North 8.1 mph - N/A   Mostly Cloudy
7:56 AM 43.0 °F 37.7 °F 25.0 °F 49% 30.38 in 10.0 mi North 9.2 mph - N/A   Mostly Cloudy
8:56 AM 43.0 °F 35.7 °F 24.1 °F 47% 30.41 in 10.0 mi North 15.0 mph 19.6 mph N/A   Mostly Cloudy
9:56 AM 45.0 °F 39.3 °F 24.1 °F 44% 30.45 in 10.0 mi NW 11.5 mph - N/A   Mostly Cloudy
10:56 AM 46.0 °F 40.6 °F 24.1 °F 42% 30.46 in 10.0 mi North 11.5 mph - N/A   Scattered Clouds
11:56 AM 46.0 °F 41.0 °F 23.0 °F 40% 30.44 in 10.0 mi NNW 10.4 mph - N/A   Mostly Cloudy
12:56 PM 46.9 °F - 23.0 °F 39% 30.43 in 10.0 mi NNW 11.5 mph - N/A   Scattered Clouds
1:56 PM 46.9 °F - 23.0 °F 39% 30.43 in 10.0 mi North 6.9 mph - N/A   Partly Cloudy
2:56 PM 46.9 °F - 23.0 °F 39% 30.43 in 10.0 mi NNE 3.5 mph - N/A   Partly Cloudy
3:56 PM 46.0 °F 43.9 °F 23.0 °F 40% 30.44 in 10.0 mi NE 4.6 mph - N/A   Clear
4:56 PM 43.0 °F 40.3 °F 23.0 °F 45% 30.45 in 10.0 mi WNW 4.6 mph - N/A   Clear
5:56 PM 37.9 °F 34.4 °F 28.9 °F 70% 30.46 in 10.0 mi WNW 4.6 mph - N/A   Clear
6:56 PM 36.0 °F - 28.0 °F 73% 30.46 in 10.0 mi Calm Calm - N/A   Clear
7:56 PM 34.0 °F 28.8 °F 26.1 °F 73% 30.46 in 10.0 mi WNW 5.8 mph - N/A   Clear
8:56 PM 32.0 °F 26.4 °F 25.0 °F 75% 30.46 in 10.0 mi WNW 5.8 mph - N/A   Clear
9:56 PM 30.9 °F 25.2 °F 25.0 °F 79% 30.46 in 10.0 mi NW 5.8 mph - N/A   Clear
10:56 PM 30.0 °F 24.1 °F 24.1 °F 79% 30.45 in 10.0 mi WNW 5.8 mph - N/A   Clear
11:56 PM 30.0 °F - 24.1 °F 79% 30.45 in 10.0 mi Calm Calm - N/A   Clear